ARABSAT-5C

Last updated on Thu Nov 21 2024 00:02:41 GMT+0000 (Coordinated Universal Time)

1 37810U 11049B 24325.24910571 .00000125 00000+0 00000+0 0 9995 2 37810 0.0529 10.2309 0006025 212.7667 306.4489 1.00272444 48286
UTC large
Height (km)
Speed (km/s)
/
Latitude / Longitude
Inclination (degrees)
Orbital Period (minutes)
Azimuth
Elevation
Range (km)
Doppler Factor

Next 0 passes for location: London (51.5072 / 0.1276)

Sorry there are no passes over London.